When you browse on this site, cookies collect data to enhance your experience and personalize the content and advertising you see.
Visit our Privacy Policy to learn more. By continuing to use the site, you agree to this use of cookies and data.
  • In United Kingdom
  • List of Countries
  • For 7 days
  • Water Temperature
  • Weather Map
  • Weather Widgets
  • user-avatar
    Login

    Hourly Weather Carlisle

    Today, 21 November, Thursday

    Time Temperature Precipitation Wind Pressure Humidity
    00:00 0°C° 0 mm 5 mps 754 mmHg 89%
    01:00 0°C° 0 mm 5 mps 753 mmHg 89%
    02:00 0°C° 0 mm 5 mps 753 mmHg 89%
    03:00 0°C° 0 mm 5 mps 753 mmHg 89%
    04:00 0°C° 0 mm 5 mps 753 mmHg 90%
    05:00 0°C° 0 mm 5 mps 753 mmHg 90%
    06:00 0°C° 0 mm 4 mps 753 mmHg 91%
    07:00 +1°C° 0 mm 4 mps 753 mmHg 90%
    08:00 +1°C° 0 mm 4 mps 753 mmHg 89%
    09:00 +1°C° 0 mm 4 mps 752 mmHg 89%
    10:00 +2°C° 0 mm 5 mps 752 mmHg 85%
    11:00 +3°C° 0 mm 5 mps 752 mmHg 81%
    12:00 +4°C° 0 mm 6 mps 752 mmHg 78%
    13:00 +3°C° 0 mm 5 mps 751 mmHg 79%
    14:00 +3°C° 0 mm 5 mps 751 mmHg 80%
    15:00 +3°C° 0 mm 5 mps 751 mmHg 81%
    16:00 +2°C° 0 mm 5 mps 750 mmHg 83%
    17:00 +2°C° 0 mm 5 mps 750 mmHg 85%
    18:00 +2°C° 0 mm 5 mps 750 mmHg 86%
    19:00 +3°C° 0 mm 4 mps 750 mmHg 87%
    20:00 +1°C° 0 mm 4 mps 749 mmHg 87%
    21:00 +1°C° 0 mm 4 mps 749 mmHg 88%
    22:00 +1°C° 0 mm 4 mps 749 mmHg 88%
    23:00 +1°C° 0 mm 4 mps 748 mmHg 88%

    Tomorrow, 22 November, Friday

    Time Temperature Precipitation Wind Pressure Humidity
    00:00 +1°C° 0 mm 5 mps 748 mmHg 88%
    01:00 +1°C° 0 mm 4 mps 747 mmHg 88%
    02:00 +3°C° 0 mm 4 mps 747 mmHg 88%
    03:00 +3°C° 0 mm 4 mps 746 mmHg 88%
    04:00 +3°C° 0 mm 4 mps 746 mmHg 90%
    05:00 +3°C° 0 mm 4 mps 746 mmHg 91%
    06:00 +3°C° 0 mm 4 mps 745 mmHg 92%
    07:00 +4°C° 0.1 mm 4 mps 745 mmHg 92%
    08:00 +5°C° 0.1 mm 4 mps 745 mmHg 92%
    09:00 +5°C° 0.1 mm 4 mps 745 mmHg 92%
    10:00 +6°C° 0.1 mm 4 mps 745 mmHg 90%
    11:00 +6°C° 0.1 mm 4 mps 744 mmHg 87%
    12:00 +7°C° 0.1 mm 4 mps 744 mmHg 85%
    13:00 +7°C° 0 mm 4 mps 744 mmHg 85%
    14:00 +6°C° 0 mm 4 mps 744 mmHg 86%
    15:00 +6°C° 0 mm 4 mps 744 mmHg 87%
    16:00 +6°C° 0 mm 4 mps 744 mmHg 89%
    17:00 +5°C° 0 mm 4 mps 745 mmHg 91%
    18:00 +4°C° 0 mm 3 mps 745 mmHg 92%
    19:00 +4°C° 0 mm 3 mps 745 mmHg 93%
    20:00 +4°C° 0 mm 4 mps 746 mmHg 93%
    21:00 +5°C° 0 mm 4 mps 746 mmHg 93%
    22:00 +5°C° 0 mm 4 mps 746 mmHg 93%
    23:00 +5°C° 0 mm 4 mps 747 mmHg 93%

    Day after tomorrow, 23 November, Saturday

    Time Temperature Precipitation Wind Pressure Humidity
    00:00 +5°C° 0 mm 4 mps 747 mmHg 92%
    01:00 +5°C° 0 mm 4 mps 747 mmHg 92%
    02:00 +6°C° 0 mm 4 mps 747 mmHg 92%
    03:00 +6°C° 0 mm 5 mps 747 mmHg 92%
    04:00 +6°C° 0 mm 5 mps 747 mmHg 91%
    05:00 +7°C° 0 mm 5 mps 747 mmHg 90%
    06:00 +7°C° 0 mm 6 mps 747 mmHg 89%
    07:00 +7°C° 0.2 mm 6 mps 747 mmHg 89%
    08:00 +7°C° 0.2 mm 6 mps 747 mmHg 90%
    09:00 +7°C° 0.2 mm 6 mps 747 mmHg 90%
    10:00 +7°C° 0.2 mm 6 mps 747 mmHg 89%
    11:00 +8°C° 0.2 mm 6 mps 747 mmHg 89%
    12:00 +8°C° 0.2 mm 6 mps 747 mmHg 88%
    13:00 +8°C° 0.3 mm 7 mps 747 mmHg 89%
    14:00 +8°C° 0.3 mm 7 mps 746 mmHg 89%
    15:00 +6°C° 0.3 mm 7 mps 746 mmHg 89%
    16:00 +7°C° 0.7 mm 6 mps 746 mmHg 90%
    17:00 +8°C° 0.7 mm 6 mps 746 mmHg 92%
    18:00 +8°C° 0.7 mm 5 mps 747 mmHg 94%
    19:00 +8°C° 0.9 mm 5 mps 747 mmHg 92%
    20:00 +8°C° 0.9 mm 6 mps 747 mmHg 91%
    21:00 +8°C° 0.9 mm 7 mps 747 mmHg 90%
    22:00 +8°C° 0.4 mm 6 mps 747 mmHg 91%
    23:00 +8°C° 0.4 mm 6 mps 747 mmHg 91%

    24 November, Sunday

    Time Temperature Precipitation Wind Pressure Humidity
    00:00 +8°C° 0.4 mm 5 mps 747 mmHg 92%
    01:00 +8°C° 0.1 mm 5 mps 747 mmHg 92%
    02:00 +8°C° 0.1 mm 4 mps 747 mmHg 93%
    03:00 +8°C° 0.1 mm 4 mps 746 mmHg 93%
    04:00 +9°C° 0.1 mm 3 mps 747 mmHg 93%
    05:00 +9°C° 0.1 mm 3 mps 747 mmHg 93%
    06:00 +9°C° 0.1 mm 3 mps 747 mmHg 93%
    07:00 +9°C° 0 mm 3 mps 747 mmHg 93%
    08:00 +9°C° 0 mm 3 mps 747 mmHg 93%
    09:00 +9°C° 0 mm 3 mps 748 mmHg 92%
    10:00 +9°C° 0 mm 3 mps 748 mmHg 91%
    11:00 +10°C° 0 mm 3 mps 748 mmHg 90%
    12:00 +10°C° 0 mm 3 mps 748 mmHg 89%
    13:00 +10°C° 0 mm 3 mps 748 mmHg 89%
    14:00 +10°C° 0 mm 3 mps 748 mmHg 90%
    15:00 +9°C° 0 mm 3 mps 748 mmHg 91%
    16:00 +9°C° 0 mm 3 mps 748 mmHg 91%
    17:00 +9°C° 0 mm 3 mps 748 mmHg 91%
    18:00 +7°C° 0 mm 4 mps 748 mmHg 90%
    19:00 +7°C° 0 mm 4 mps 747 mmHg 90%
    20:00 +7°C° 0 mm 4 mps 747 mmHg 90%
    21:00 +6°C° 0 mm 4 mps 747 mmHg 89%
    22:00 +7°C° 0.4 mm 5 mps 746 mmHg 89%
    23:00 +7°C° 0.4 mm 6 mps 745 mmHg 88%

    25 November, Monday

    Time Temperature Precipitation Wind Pressure Humidity
    00:00 +6°C° 0.4 mm 7 mps 744 mmHg 88%
    01:00 +8°C° 1.2 mm 7 mps 744 mmHg 89%
    02:00 +8°C° 1.2 mm 7 mps 743 mmHg 90%
    03:00 +9°C° 1.2 mm 7 mps 742 mmHg 90%
    04:00 +9°C° 1.5 mm 7 mps 742 mmHg 91%
    05:00 +9°C° 1.5 mm 7 mps 741 mmHg 91%
    06:00 +9°C° 1.5 mm 7 mps 740 mmHg 91%
    07:00 +9°C° 2.1 mm 7 mps 740 mmHg 91%
    08:00 +10°C° 2.1 mm 7 mps 740 mmHg 92%
    09:00 +10°C° 2.1 mm 6 mps 739 mmHg 92%
    10:00 +10°C° 1.2 mm 5 mps 739 mmHg 93%
    11:00 +11°C° 1.2 mm 4 mps 739 mmHg 93%
    12:00 +11°C° 1.2 mm 3 mps 739 mmHg 93%
    13:00 +11°C° 0.4 mm 3 mps 739 mmHg 94%
    14:00 +10°C° 0.4 mm 3 mps 739 mmHg 94%
    15:00 +10°C° 0.4 mm 4 mps 739 mmHg 95%
    16:00 +10°C° 0.2 mm 4 mps 740 mmHg 95%
    17:00 +9°C° 0.2 mm 5 mps 740 mmHg 95%
    18:00 +9°C° 0.2 mm 5 mps 740 mmHg 95%
    19:00 +8°C° 0.1 mm 5 mps 741 mmHg 94%
    20:00 +8°C° 0.1 mm 6 mps 742 mmHg 93%
    21:00 +7°C° 0.1 mm 6 mps 742 mmHg 92%
    22:00 +8°C° 0.1 mm 6 mps 743 mmHg 91%
    23:00 +8°C° 0.1 mm 7 mps 743 mmHg 89%

    26 November, Tuesday

    Time Temperature Precipitation Wind Pressure Humidity
    00:00 +8°C° 0.1 mm 7 mps 743 mmHg 88%
    01:00 +7°C° 0 mm 8 mps 744 mmHg 88%
    02:00 +7°C° 0 mm 8 mps 744 mmHg 88%
    03:00 +7°C° 0 mm 8 mps 745 mmHg 88%
    04:00 +8°C° 0 mm 7 mps 745 mmHg 89%
    05:00 +8°C° 0 mm 7 mps 745 mmHg 90%
    06:00 +8°C° 0 mm 6 mps 746 mmHg 90%
    07:00 +8°C° 0.1 mm 6 mps 746 mmHg 90%
    08:00 +8°C° 0.1 mm 6 mps 746 mmHg 89%
    09:00 +8°C° 0.1 mm 6 mps 747 mmHg 89%
    10:00 +8°C° 0.1 mm 6 mps 747 mmHg 87%
    11:00 +8°C° 0.1 mm 6 mps 747 mmHg 86%
    12:00 +8°C° 0.1 mm 6 mps 747 mmHg 84%
    13:00 +8°C° 0.1 mm 5 mps 747 mmHg 86%
    14:00 +8°C° 0.1 mm 4 mps 746 mmHg 88%
    15:00 +9°C° 0.1 mm 3 mps 746 mmHg 90%
    16:00 +8°C° 0.1 mm 3 mps 746 mmHg 91%
    17:00 +8°C° 0.1 mm 3 mps 745 mmHg 92%
    18:00 +8°C° 0.1 mm 3 mps 745 mmHg 93%
    19:00 +8°C° 0 mm 3 mps 745 mmHg 92%
    20:00 +8°C° 0 mm 3 mps 744 mmHg 92%
    21:00 +8°C° 0 mm 3 mps 744 mmHg 91%
    22:00 +8°C° 0.3 mm 3 mps 743 mmHg 92%
    23:00 +8°C° 0.3 mm 3 mps 742 mmHg 93%
    Show more